Regional Weather Roundup
Issued by NWS

Home | Current Version | Previous Version | Text Only | Print | Product List | Glossary Off
Versions: 1 2 3 4 5 6 7 8 9 10 11 12 13 14 15 16 17 18 19 20 21 22 23 24 25 26 27 28 29 30 31 32 33 34 35 36 37 38 39 40 41 42 43 44 45 46 47 48 49 50

000
ASUS45 KBOU 300607
RWRCO

WEATHER ROUNDUP FOR COLORADO
NATIONAL WEATHER SERVICE DENVER/BOULDER CO
1200 AM MDT TUE MAY 30 2017

NOTE: "FAIR" INDICATES FEW OR NO CLOUDS BELOW 12000 FEET WITH NO
SIGNIFICANT WEATHER AND/OR OBSTRUCTIONS TO VISIBILITY.

COZ001>005-013-030-031-300700-
...NORTHWEST COLORADO...

CITY           SKY/WX    TMP DP  RH WIND       PRES   REMARKS
CRAIG          FAIR      44  37  76 CALM      30.23S
HAYDEN         FAIR      48  34  57 SE6       30.25S
MEEKER         FAIR      43  36  76 NE6       30.22S
RABBIT EARS PA FAIR      37  30  75 E7        30.44S
STEAMBOAT SPGS FAIR      46  35  64 CALM      30.27S
WALDEN           N/A     37  32  81 SE8       30.36S
$$

COZ006>008-011-300700-
...WEST CENTRAL VALLEYS...

CITY           SKY/WX    TMP DP  RH WIND       PRES   REMARKS
GRAND JUNCTION FAIR      68  29  23 W9        30.08S
MONTROSE       FAIR      55  29  36 SE8       30.17S
EAGLE          FAIR      49  34  56 SE5       30.27S
RIFLE          FAIR      56  30  37 E6        30.17R
DELTA          FAIR      64  26  23 CALM      30.13R
NUCLA          FAIR      57  27  30 E12       30.19S
$$

COZ017>023-064>068-300700-
...SOUTHWEST COLORADO...

CITY           SKY/WX    TMP DP  RH WIND       PRES   REMARKS
DURANGO        FAIR      50  27  40 N6        30.20R
CORTEZ         FAIR      45  35  68 E5        30.15S
PAGOSA SPRINGS FAIR      49  25  38 CALM      30.29R
TELLURIDE      FAIR      46  27  47 SE6       30.37S
WOLF CREEK PAS MOCLDY    39  18  41 SW3       30.55S
$$

COZ009-010-012-014-032>034-037-058>063-300700-
...CENTRAL COLORADO...

CITY           SKY/WX    TMP DP  RH WIND       PRES   REMARKS
ASPEN          FAIR      44  31  60 SW10      30.29S
BUENA VISTA    MOCLDY    48  36  63 SE6       30.37R
COPPER MTN     FAIR      37  27  65 CALM      30.51F
BERTHOUD PASS  FAIR      30  19  64 NW5       30.53S WCI  25
COTTONWOOD PAS FAIR      45  34  65 CALM      30.44S
GUNNISON       FAIR      45  28  51 CALM      30.30R
KREMMLING      FAIR      46  37  71 CALM      30.32S
LEADVILLE      FAIR      34  27  75 CALM      30.41F
MONARCH PASS   FOG       34  32  93 NE22      30.60S VSB<1/4 WCI  22
SALIDA         FAIR      52  38  58 E3        30.42R
SUNLIGHT       FAIR      37  28  70 NE7       30.48S
WILKERSON PASS MOCLDY    34  32  93 S9        30.52S WCI  26
$$

COZ069>075-300700-
...SAN LUIS VALLEY/SANGRE DE CRISTO MOUNTAINS...

CITY           SKY/WX    TMP DP  RH WIND       PRES   REMARKS
ALAMOSA        MOCLDY    52  39  61 SE17      30.28F
DEL NORTE      FAIR      51  35  55 NE7       30.32R
LA VETA PASS   FOG       36  34  93 NE7       30.56S VSB 1/2
SAGUACHE       FAIR      46  32  57 NW9       30.32S
$$

COZ035-036-038>040-300700-
...NORTHERN COLORADO FRONT RANGE...

CITY           SKY/WX    TMP DP  RH WIND       PRES   REMARKS
DENVER INTL AP FAIR      48  42  80 S9        30.25S
DMNS CITY PARK   N/A     53  44  73 SE9       30.25S
AURORA         NOT AVBL
FRONT RANGE AP FAIR      50  45  81 SE8       30.26S
ERIE MUNI ARPT FAIR      49  45  85 S3        30.24S
BOULDER MUN AP FAIR      54  43  66 CALM      30.24S
CENTENNIAL     FAIR      47  44  90 S5        30.27S
BROOMFIELD     FAIR      52  41  66 CALM      30.26S
FORT COLLINS   FAIR      54  44  69 NW5       30.24S
LONGMONT       FAIR      52  44  76 W5        30.25S HAZE
$$

COZ041-046-047-076>085-087-088-300700-
...PIKES PEAK/PALMER DIVIDE AND SOUTHERN FOOTHILLS...

CITY           SKY/WX    TMP DP  RH WIND       PRES   REMARKS
COLO. SPRINGS  CLOUDY    56  45  66 NE6       30.29F
A. F. ACADEMY  LGT RAIN  48  45  90 NE8       30.29F
SCHRIEVER AFB  MOCLDY    52  46  82 N7        30.30S
CHEYENNE MTN   MOCLDY    53  38  57 SE10      30.27S
ELLICOTT       CLOUDY   N/A N/A N/A NE5       30.28F
FALCON         DRIZZLE   51  42  72 CALM      30.32S
FORT CARSON    CLOUDY    53  45  75 S8        30.29R
LIMON          FAIR      40  40 100 N5        30.26F
MONUMENT HILL  CLOUDY    45  41  87 S6        30.33F
CANON CITY     NOT AVBL
WALSENBURG     MOCLDY    52  48  87 NW3       30.30F
TRINIDAD       MOCLDY    51  47  86 S8        30.30F
$$

COZ042>045-048>051-090-091-300700-
...NORTHEAST COLORADO...

CITY           SKY/WX    TMP DP  RH WIND       PRES   REMARKS
GREELEY ARPT   FAIR      53  47  79 CALM      30.22F
AKRON          FAIR      50  45  83 SW9       30.22S
BURLINGTON     FAIR      50  46  86 SW9       30.21S
WRAY           FAIR      50  46  87 W7        30.19S
YUMA           FAIR      46  37  71 SW7       30.20S
STERLING       NOT AVBL
HOLYOKE        NOT AVBL
FORT MORGAN    FAIR      49  44  80 W6        30.22S
$$

COZ086-089-092>099-300700-
...SOUTHEAST COLORADO...

CITY           SKY/WX    TMP DP  RH WIND       PRES   REMARKS
PUEBLO         FAIR      56  47  71 S6        30.24F
LA JUNTA       FAIR      60  48  64 SW15      30.20F
LAMAR          FAIR      55  52  89 E6        30.18F
SPRINGFIELD      N/A     52  49  89 SE5       30.23F
$$



USA.gov is the U.S. government's official web portal to all federal, state and local government web resources and services.